Content
SEND FEEDBACK

Daily
Averages
Monthly
Summary
Canada

NORTH HEAD, NEW BRUNSWICK


Home > North America > Canada > New Brunswick
Elevation: 26 feet     Latitude: 44 43N     Longitude: 066 46W

WEATHER
 
SELECT A DAY
Number of Records: 137,141;   Date Range: 1/1/95 - 11/21/14
 
SHARE

PRINT THIS DATA

[ ← Previous Day ]
WEATHER ALMANAC - JANUARY 31, 2013
[ Next Day → ]
[ °C ]   °F
Weather ElementAverageHighLow
Temperature46.9 °F50.4 °F (6:00 am)37.6 °F (11:00 pm)
Dewpoint43.5 °F49.6 °F (6:00 am)24.1 °F (11:00 pm)
Humidity87.6 %97 % (1:00 am)58 % (11:00 pm)
Barometer29.18 in29.50 in (1:00 am)28.88 in (2:00 pm)
Wind Speed20.7 mph38 mph (12:00 pm)
Wind Gust50.6 mph (1:00 pm)
Weather ElementAverage
Wind DirectionSSW (206.7 °)

Weather ElementTotal
Precipitation0.15 in
Heating Degree Days21 (Base 65)
Averaged from 27 records on January 31, 2013
WEATHER CONDITIONS BREAKOUT
WIND DIRECTION BREAKOUT
WEATHER BY HOUR - JANUARY 31, 2013
[ °C ]   °F
Local TimeTemperatureDewpointHumidityBarometerVisibilityWind DirectionWind SpeedGust SpeedPrecipitationEventsConditions
1:00 AM49.5 °F48.7 °F97 %29.50 inSSW (200°)18.4 mph31.1 mph
2:00 AM50.0 °F49.0 °F95 %29.47 inSSW (200°)18.4 mph
2:00 AM49.6 °F48.9 °F97 %29.47 inSSW (200°)18.4 mph27.6 mph
3:00 AM49.3 °F48.6 °F97 %29.47 inSSW (210°)16.1 mph26.5 mph
4:00 AM50.2 °F49.5 °F97 %29.44 inSSW (210°)17.3 mph26.5 mph
5:00 AM49.1 °F48.4 °F97 %29.41 inSouth (190°)19.6 mph27.6 mph
6:00 AM50.4 °F49.6 °F97 %29.37 inSouth (190°)19.6 mph32.2 mph
7:00 AM49.6 °F48.9 °F97 %29.32 inSouth (190°)20.7 mph28.8 mph
8:00 AM49.0 °F48.0 °F95 %29.28 inSouth (190°)21.9 mph
8:00 AM49.1 °F48.0 °F96 %29.28 inSouth (190°)21.9 mph32.2 mph
9:00 AM48.4 °F47.1 °F95 %29.23 inSouth (180°)27.6 mph38.0 mph
10:00 AM48.7 °F47.7 °F96 %29.17 inSouth (180°)28.8 mph39.1 mph0.02 in
11:00 AM49.1 °F47.8 °F95 %29.10 inSouth (180°)35.7 mph44.9 mph
12:00 PM49.5 °F48.4 °F96 %29.00 inSouth (180°)38.0 mph48.3 mph0.04 in
1:00 PM49.6 °F48.4 °F95 %28.90 inSouth (180°)38.0 mph50.6 mph
2:00 PM50.0 °F49.0 °F93 %28.88 inSouth (190°)32.2 mph
2:00 PM50.0 °F48.6 °F95 %28.88 inSouth (190°)32.2 mph46.0 mph0.09 in
3:00 PM49.8 °F45.3 °F84 %28.88 inSSW (210°)25.3 mph44.9 mph
4:00 PM46.6 °F41.5 °F83 %28.94 inSSW (210°)23.0 mph43.7 mph
5:00 PM44.2 °F39.9 °F85 %29.01 inSW (230°)9.2 mph18.4 mph
6:00 PM43.2 °F37.8 °F81 %29.06 inSW (230°)10.4 mph18.4 mph
7:00 PM42.3 °F35.6 °F77 %29.10 inSW (230°)9.2 mph18.4 mph
8:00 PM42.0 °F33.0 °F62 %29.13 inWSW (240°)10.4 mph
8:00 PM41.7 °F33.4 °F72 %29.13 inWSW (240°)10.4 mph23.0 mph
9:00 PM39.9 °F28.2 °F63 %29.16 inWest (260°)11.5 mph25.3 mph
10:00 PM38.8 °F30.0 °F71 %29.18 inSW (230°)11.5 mph20.7 mph
11:00 PM37.6 °F24.1 °F58 %29.21 inWSW (250°)13.8 mph29.9 mph
Hourly data recorded from CWPE, located miles away from North Head, New Brunswick







STORIES FROM OUR PARTNERS